CW5272 Weather Reports


Display with metric or nautical units.
time (UTC)temp
F
wind
direction
speed
MPH
gust
MPH
rain 1hr
in
rain 24hr
in
rain mn
in
humidity
%
barometer
mb
20170926162235 74 333 2.0 9.0 0.00 0.00 0.00 33 1008.7
20170926153235 72 345 0.0 3.0 0.00 0.00 0.00 32 1008.7
20170926151235 70 30 0.0 3.0 0.00 0.00 0.00 34 1008.6
20170926150235 69 19 0.0 1.0 0.00 0.00 0.00 34 1008.6
20170926145235 68 17 0.0 5.0 0.00 0.00 0.00 35 1008.7
20170926143235 67 292 3.0 3.0 0.00 0.00 0.00 36 1008.7
20170926142234 67 333 3.0 5.0 0.00 0.00 0.00 36 1008.7
20170926135234 68 355 2.0 5.0 0.00 0.00 0.00 35 1008.3
20170926133234 68 302 0.0 1.0 0.00 0.00 0.00 35 1008.1
20170926132234 66 302 0.0 3.0 0.00 0.00 0.00 36 1008.1
20170926131235 66 302 0.0 3.0 0.00 0.00 0.00 37 1007.9
20170926125234 66 307 3.0 3.0 0.00 0.00 0.00 37 1007.9
20170926124234 66 285 0.0 1.0 0.00 0.00 0.00 38 1007.9
20170926120234 66 285 0.0 0.0 0.00 0.00 0.00 39 1007.7
20170926114234 65 285 0.0 3.0 0.00 0.00 0.00 37 1007.6
20170926113234 66 285 3.0 3.0 0.00 0.00 0.00 40 1007.6
20170926111234 65 58 4.0 5.0 0.00 0.00 0.00 42 1007.7
20170926110234 66 58 3.0 3.0 0.00 0.00 0.00 42 1007.7
20170926105234 66 52 0.0 0.0 0.00 0.00 0.00 41 1007.7
20170926101234 65 53 0.0 0.0 0.00 0.00 0.00 44 1008.0
20170926100234 65 53 0.0 0.0 0.00 0.00 0.00 43 1008.0
20170926094234 66 53 0.0 0.0 0.00 0.00 0.00 41 1008.2
20170926093234 66 53 0.0 0.0 0.00 0.00 0.00 40 1008.2
20170926092234 67 53 2.0 3.0 0.00 0.00 0.00 36 1008.2
20170926091234 68 311 0.0 1.0 0.00 0.00 0.00 34 1008.1
20170926083233 69 311 0.0 0.0 0.00 0.00 0.00 32 1008.1
20170926082234 70 311 0.0 0.0 0.00 0.00 0.00 31 1008.0
20170926080233 70 311 0.0 0.0 0.00 0.00 0.00 31 1008.0
20170926075234 70 310 0.0 1.0 0.00 0.00 0.00 31 1008.0
20170926073233 70 311 2.0 3.0 0.00 0.00 0.00 31 1008.1
20170926072233 70 318 3.0 4.0 0.00 0.00 0.00 31 1008.2
20170926071233 70 330 1.0 3.0 0.00 0.00 0.00 31 1008.4
20170926070233 69 329 2.0 3.0 0.00 0.00 0.00 33 1008.4
20170926064233 69 333 0.0 1.0 0.00 0.00 0.00 32 1008.6
20170926062233 70 333 0.0 3.0 0.00 0.00 0.00 32 1008.6
20170926061233 69 332 0.0 3.0 0.00 0.00 0.00 33 1008.8
20170926060233 69 344 0.0 1.0 0.00 0.00 0.00 33 1008.8
20170926055233 68 348 3.0 4.0 0.00 0.00 0.00 33 1008.8
20170926054233 68 303 3.0 4.0 0.00 0.00 0.00 33 1008.7
20170926052233 69 296 0.0 3.0 0.00 0.00 0.00 33 1008.8
20170926044233 68 344 0.0 5.0 0.00 0.00 0.00 33 1009.1
20170926043234 67 311 5.0 5.0 0.00 0.00 0.00 35 1009.1
20170926042233 67 345 0.0 5.0 0.00 0.00 0.00 35 1009.1
20170926041233 67 343 1.0 4.0 0.00 0.00 0.00 36 1009.2
20170926040233 67 272 0.0 1.0 0.00 0.00 0.00 36 1009.2
20170926033233 68 264 0.0 2.0 0.00 0.00 0.00 34 1009.2
20170926032232 69 270 0.0 10.0 0.00 0.00 0.00 33 1009.0
20170926031233 69 22 4.0 11.0 0.00 0.00 0.00 32 1009.1
20170926030232 69 305 1.0 9.0 0.00 0.00 0.00 31 1009.1
20170926025233 69 333 4.0 12.0 0.00 0.00 0.00 32 1008.9
20170926023232 70 5 3.0 13.0 0.00 0.00 0.00 32 1008.8
20170926021232 72 360 2.0 16.0 0.00 0.00 0.00 30 1008.6
20170926020232 73 294 10.0 12.0 0.00 0.00 0.00 31 1008.6
20170926015232 75 261 10.0 12.0 0.00 0.00 0.00 30 1008.5
20170926014232 76 272 6.0 11.0 0.00 0.00 0.00 28 1008.4
20170926011232 77 341 3.0 10.0 0.00 0.00 0.00 26 1008.6
20170926005232 77 21 3.0 4.0 0.00 0.00 0.00 25 1008.6
20170926004232 77 305 0.0 10.0 0.00 0.00 0.00 25 1008.6
20170925235232 79 44 9.0 10.0 0.00 0.00 0.00 23 1008.5
20170925234232 80 9 3.0 12.0 0.00 0.00 0.00 23 1008.6
20170925233232 80 22 4.0 10.0 0.00 0.00 0.00 22 1008.6
20170925232232 82 33 0.0 10.0 0.00 0.00 0.00 23 1008.6
20170925225232 83 25 4.0 10.0 0.00 0.00 0.00 21 1009.0
20170925224232 82 355 4.0 15.0 0.00 0.00 0.00 21 1009.0
20170925223232 82 53 3.0 10.0 0.00 0.00 0.00 21 1009.0
20170925220232 82 44 0.0 5.0 0.00 0.00 0.00 21 1009.1
20170925213231 84 38 0.0 11.0 0.00 0.00 0.00 19 1009.2
20170925210231 83 11 6.0 9.0 0.00 0.00 0.00 21 1009.4
20170925205231 83 26 2.0 12.0 0.00 0.00 0.00 20 1009.7
20170925204231 83 59 6.0 10.0 0.00 0.00 0.00 21 1009.9
20170925201231 82 33 3.0 10.0 0.00 0.00 0.00 21 1010.3
20170925200231 83 28 5.0 5.0 0.00 0.00 0.00 21 1010.3
20170925194231 83 47 6.0 10.0 0.00 0.00 0.00 21 1010.6
20170925193231 82 360 0.0 5.0 0.00 0.00 0.00 23 1010.6
20170925191230 82 24 0.0 10.0 0.00 0.00 0.00 21 1011.0
20170925183231 82 21 0.0 3.0 0.00 0.00 0.00 24 1011.1
20170925181231 80 49 0.0 5.0 0.00 0.00 0.00 26 1011.6
20170925180231 78 314 3.0 5.0 0.00 0.00 0.00 25 1011.6
20170925174231 78 71 0.0 4.0 0.00 0.00 0.00 25 1011.8
20170925172231 76 332 0.0 1.0 0.00 0.00 0.00 27 1011.9
20170925171230 76 290 0.0 4.0 0.00 0.00 0.00 27 1011.9
20170925170230 73 287 0.0 3.0 0.00 0.00 0.00 29 1011.9
20170925165231 73 290 0.0 3.0 0.00 0.00 0.00 28 1012.0
20170925163231 72 290 2.0 3.0 0.00 0.00 0.00 28 1012.0